DW8453 Bekkjarvik NO current weather conditions

sailwx.info

Wind from 015 at 12 knots gusting 17

Air temperature 18.9° C
Dewpoint 11.7° C

Last reported at 2014-Sep-01 12:53 UTC.
Time now 2014-Sep-01 13:40 UTC

Location: N 60°01' E 005°12'.
View on Google Maps.

See reports from other nearby stations

  
Tides and Currents Weather Stations Pressure Air Temp Water Temp Dewpoint Dewpoint Depression Visibility Wind Speed Wind Dir Waves Ship Positions
date/time (UTC)wind fromknots sea level pressurealtimeterstation pressurevisibilityair tempwater tempwave heightnotes
2014-Sep-01 12:53 015 12 gusting 17 18.9
2014-Sep-01 12:43 046 8 gusting 15 19.4
2014-Sep-01 12:33 037 13 gusting 17 19.4
2014-Sep-01 12:23 234 10 gusting 17 19.4
2014-Sep-01 12:13 219 11 gusting 15 19.4
2014-Sep-01 12:03 024 8 gusting 14 18.9
2014-Sep-01 11:53 028 9 gusting 13 18.9
2014-Sep-01 11:43 344 9 gusting 12 18.3
2014-Sep-01 11:33 191 8 gusting 12 18.3
2014-Sep-01 11:23 208 9 gusting 13 18.3
2014-Sep-01 11:13 195 7 gusting 7 18.3
2014-Sep-01 11:03 170 7 gusting 10 17.8
2014-Sep-01 10:53 184 7 gusting 10 17.8
2014-Sep-01 10:43 030 6 gusting 12 17.8
2014-Sep-01 10:33 181 7 gusting 12 17.2
2014-Sep-01 10:23 204 5 gusting 11 17.2
2014-Sep-01 10:13 204 7 gusting 14 17.2
2014-Sep-01 10:03 030 10 gusting 13 17.2
2014-Sep-01 09:53 199 9 gusting 13 17.2
2014-Sep-01 09:43 219 8 gusting 13 17.2
2014-Sep-01 09:33 010 9 gusting 11 17.2
2014-Sep-01 09:23 223 8 gusting 10 16.7
2014-Sep-01 09:13 221 6 gusting 7 16.7
2014-Sep-01 09:03 014 6 gusting 10 16.7
2014-Sep-01 08:53 021 6 gusting 8 16.1
2014-Sep-01 08:43 351 6 gusting 10 16.1
2014-Sep-01 08:33 004 6 gusting 8 16.1
2014-Sep-01 08:23 187 5 gusting 10 15.6
2014-Sep-01 08:13 038 6 gusting 8 15.6
2014-Sep-01 08:03 188 6 gusting 8 15.6
2014-Sep-01 07:53 015 3 gusting 6 15.6
2014-Sep-01 07:43 355 3 gusting 6 15.6
2014-Sep-01 07:33 186 5 gusting 6 15.6
2014-Sep-01 07:23 188 3 gusting 7 15.6
2014-Sep-01 07:13 212 2 gusting 6 15.0
2014-Sep-01 07:03 008 3 gusting 6 15.0
2014-Sep-01 06:53 197 2 gusting 6 15.0
2014-Sep-01 06:43 223 5 gusting 6 15.0
2014-Sep-01 06:33 013 4 gusting 6 15.0
2014-Sep-01 06:23 027 3 gusting 5 15.0
2014-Sep-01 06:13 021 4 gusting 5 15.6
2014-Sep-01 06:03 211 3 gusting 6 15.6
2014-Sep-01 05:53 037 4 gusting 6 15.0
2014-Sep-01 05:43 022 3 gusting 7 15.0
2014-Sep-01 05:33 220 4 gusting 8 15.0
2014-Sep-01 05:23 012 5 gusting 10 15.0
2014-Sep-01 05:13 033 6 gusting 10 15.0
2014-Sep-01 05:03 224 7 gusting 13 15.0
2014-Sep-01 04:53 007 6 gusting 8 15.0
2014-Sep-01 04:43 213 6 gusting 10 15.0
2014-Sep-01 04:33 196 7 gusting 10 15.0
2014-Sep-01 04:23 025 6 gusting 12 15.0
2014-Sep-01 04:13 025 8 gusting 12 15.0
2014-Sep-01 04:03 018 8 gusting 13 15.0
2014-Sep-01 03:53 218 6 gusting 10 15.0
2014-Sep-01 03:43 211 6 gusting 10 15.0
2014-Sep-01 03:33 235 6 gusting 8 15.0
2014-Sep-01 03:23 029 6 gusting 11 15.0
2014-Sep-01 03:13 211 7 gusting 11 15.0
2014-Sep-01 03:03 024 8 gusting 11 15.6
2014-Sep-01 02:53 233 6 gusting 12 15.6
2014-Sep-01 02:43 015 7 gusting 10 15.6
2014-Sep-01 02:33 032 5 gusting 7 15.6
2014-Sep-01 02:23 028 7 gusting 10 15.6
2014-Sep-01 02:13 359 7 gusting 10 15.6
2014-Sep-01 02:03 013 6 gusting 10 15.6
2014-Sep-01 01:53 014 6 gusting 8 15.6
2014-Sep-01 01:43 349 8 gusting 8 15.6
2014-Sep-01 01:33 347 8 gusting 11 15.6
2014-Sep-01 01:23 021 7 gusting 12 15.6
2014-Sep-01 01:13 016 7 gusting 11 15.6
2014-Sep-01 01:03 359 6 gusting 12 15.6
2014-Sep-01 00:53 349 7 gusting 12 15.6
2014-Sep-01 00:43 027 7 gusting 12 15.6
2014-Sep-01 00:33 016 7 gusting 10 15.6
2014-Sep-01 00:23 216 7 gusting 11 15.6
2014-Sep-01 00:13 218 6 gusting 8 15.6
2014-Sep-01 00:03 015 5 gusting 10 15.6
2014-Aug-31 23:53 016 6 gusting 7 15.6
2014-Aug-31 23:43 213 6 gusting 11 15.6
2014-Aug-31 23:33 215 6 gusting 12 15.6
2014-Aug-31 23:23 035 5 gusting 10 15.6
2014-Aug-31 23:13 031 6 gusting 10 15.6
2014-Aug-31 23:03 231 7 gusting 12 15.6
2014-Aug-31 22:53 043 8 gusting 11 15.6
2014-Aug-31 22:43 023 6 gusting 8 15.0
2014-Aug-31 22:33 015 6 gusting 8 15.0
2014-Aug-31 22:23 222 5 gusting 10 15.0
2014-Aug-31 22:13 200 4 gusting 6 15.0
2014-Aug-31 22:03 216 6 gusting 10 15.0
2014-Aug-31 21:53 045 4 gusting 8 15.0
2014-Aug-31 21:43 206 7 gusting 10 15.0
2014-Aug-31 21:33 203 6 gusting 10 15.0
2014-Aug-31 21:23 010 7 gusting 10 15.0
2014-Aug-31 21:13 213 5 gusting 8 15.0
2014-Aug-31 21:03 206 5 gusting 8 14.4
2014-Aug-31 20:53 021 6 gusting 10 14.4
2014-Aug-31 20:43 205 6 gusting 8 15.0
2014-Aug-31 20:33 214 6 gusting 8 15.0
2014-Aug-31 20:23 012 5 gusting 6 15.0
2014-Aug-31 20:13 037 4 gusting 7 15.0
2014-Aug-31 20:03 037 7 gusting 7 15.6
2014-Aug-31 19:53 032 6 gusting 8 15.6
2014-Aug-31 19:43 228 5 gusting 7 15.6
2014-Aug-31 19:33 214 6 gusting 6 15.6
2014-Aug-31 19:23 228 5 gusting 6 15.6
2014-Aug-31 19:13 232 5 gusting 6 16.1
2014-Aug-31 19:03 227 5 gusting 8 16.7
2014-Aug-31 18:53 251 6 gusting 7 16.7
2014-Aug-31 18:43 250 6 gusting 8 16.7
2014-Aug-31 18:33 216 6 gusting 8 16.7
2014-Aug-31 18:23 219 5 gusting 6 17.2
2014-Aug-31 18:13 204 5 gusting 6 17.2
2014-Aug-31 18:03 227 6 gusting 10 17.8
2014-Aug-31 17:53 061 6 gusting 10 17.8
2014-Aug-31 17:43 218 6 gusting 10 18.3
2014-Aug-31 17:33 185 6 gusting 11 18.3
2014-Aug-31 17:23 009 7 gusting 8 18.9
2014-Aug-31 17:13 037 5 gusting 6 18.9
2014-Aug-31 17:03 223 6 gusting 7 18.9
2014-Aug-31 16:53 184 6 gusting 8 18.9
2014-Aug-31 16:43 357 5 gusting 8 19.4
2014-Aug-31 16:33 194 6 gusting 7 19.4
2014-Aug-31 16:23 346 5 gusting 8 19.4
2014-Aug-31 16:13 202 4 gusting 8 20.0
2014-Aug-31 16:03 347 6 gusting 10 20.0
2014-Aug-31 15:53 328 5 gusting 10 20.0
2014-Aug-31 15:43 349 7 gusting 11 20.0
2014-Aug-31 15:33 276 6 gusting 11 20.0
2014-Aug-31 15:23 335 7 gusting 10 20.6
2014-Aug-31 15:13 328 7 gusting 11 20.6
2014-Aug-31 15:03 340 6 gusting 7 20.6
2014-Aug-31 14:53 331 5 gusting 7 20.6
2014-Aug-31 14:43 169 6 gusting 8 20.6
2014-Aug-31 14:33 330 7 gusting 10 20.6
2014-Aug-31 14:23 112 6 gusting 7 20.6
2014-Aug-31 14:13 344 6 gusting 11 21.1
2014-Aug-31 14:03 143 5 gusting 7 21.1
2014-Aug-31 13:53 176 5 gusting 8 20.6
2014-Aug-31 13:43 012 7 gusting 8 20.6
2014-Aug-31 13:33 141 4 gusting 6 20.6
2014-Aug-31 13:23 345 6 gusting 10 20.6
2014-Aug-31 13:13 192 4 gusting 7 21.1
2014-Aug-31 13:03 341 6 gusting 12 20.6
2014-Aug-31 12:53 353 7 gusting 10 20.6
2014-Aug-31 12:43 164 4 gusting 6 21.1
2014-Aug-31 12:33 322 4 gusting 6 21.1
2014-Aug-31 12:23 335 2 gusting 6 20.6
2014-Aug-31 12:13 141 2 gusting 7 20.6
2014-Aug-31 12:03 347 6 gusting 7 20.6
2014-Aug-31 11:53 188 5 gusting 7 20.0
2014-Aug-31 11:43 339 6 gusting 8 20.6
2014-Aug-31 11:33 014 5 gusting 8 20.6
2014-Aug-31 11:23 015 6 gusting 10 20.6
2014-Aug-31 11:13 167 6 gusting 8 20.6
2014-Aug-31 11:03 159 6 gusting 6 21.1
2014-Aug-31 10:53 314 5 gusting 8 21.1
2014-Aug-31 10:43 117 2 gusting 6 21.1
2014-Aug-31 10:33 330 2 gusting 6 21.1
2014-Aug-31 10:23 114 4 gusting 5 21.1
2014-Aug-31 10:13 123 3 gusting 6 21.1
2014-Aug-31 10:03 119 1 gusting 4 21.1
2014-Aug-31 09:53 324 3 gusting 5 21.1
2014-Aug-31 09:43 310 1 gusting 4 21.1
2014-Aug-31 09:33 108 1 gusting 4 21.1
2014-Aug-31 09:23 279 2 gusting 5 21.7
2014-Aug-31 09:13 118 2 gusting 4 21.7
2014-Aug-31 09:03 125 2 gusting 4 21.1
2014-Aug-31 08:53 140 2 gusting 4 21.1
2014-Aug-31 08:43 135 1 gusting 2 20.6
2014-Aug-31 08:33 145 1 gusting 1 20.6
2014-Aug-31 08:23 136 1 gusting 2 20.0
2014-Aug-31 08:13 337 2 gusting 4 19.4
2014-Aug-31 08:03 151 0 gusting 1 18.9
2014-Aug-31 07:53 172 0 gusting 1 18.3
2014-Aug-31 07:43 085 0 gusting 1 17.8
2014-Aug-31 07:33 185 17.8
2014-Aug-31 07:23 345 0 gusting 1 17.2
2014-Aug-31 07:03 121 16.1
2014-Aug-31 06:53 116 0 gusting 2 16.1
2014-Aug-31 06:43 310 1 gusting 2 15.6
2014-Aug-31 06:33 125 0 gusting 2 15.0
2014-Aug-31 06:23 195 15.0
2014-Aug-31 06:13 340 15.0
2014-Aug-31 06:03 308 1 gusting 1 15.0
2014-Aug-31 05:53 271 1 gusting 2 14.4
2014-Aug-31 05:43 010 0 gusting 1 14.4
2014-Aug-31 05:33 240 0 gusting 1 13.9
2014-Aug-31 05:23 174 0 gusting 1 13.9
2014-Aug-31 05:13 304 1 gusting 5 13.9
2014-Aug-31 05:03 300 2 gusting 4 13.9
2014-Aug-31 04:53 307 1 gusting 2 13.9
2014-Aug-31 04:43 090 0 gusting 1 13.9
2014-Aug-31 04:33 205 1 gusting 2 13.9
2014-Aug-31 04:23 13.9
2014-Aug-31 04:13 195 13.9
2014-Aug-31 04:03 253 0 gusting 0 13.9
2014-Aug-31 03:53 195 13.9
2014-Aug-31 03:43 035 0 gusting 1 13.9
2014-Aug-31 03:33 145 0 gusting 0 13.9
2014-Aug-31 03:23 090 1 gusting 1 14.4
2014-Aug-31 03:13 330 0 gusting 1 14.4
2014-Aug-31 03:03 088 0 gusting 1 13.9
2014-Aug-31 02:53 058 1 gusting 1 13.9
2014-Aug-31 02:43 113 0 gusting 1 13.9
2014-Aug-31 02:33 070 13.9
2014-Aug-31 02:23 105 13.3
2014-Aug-31 02:13 270 0 gusting 1 13.9
2014-Aug-31 02:03 268 1 gusting 1 13.9
2014-Aug-31 01:53 270 0 gusting 1 13.3
2014-Aug-31 01:43 329 13.9
2014-Aug-31 01:33 045 13.9
2014-Aug-31 01:23 072 1 gusting 2 13.3
2014-Aug-31 01:13 004 1 gusting 1 13.3
2014-Aug-31 01:03 347 0 gusting 1 13.3
2014-Aug-31 00:53 292 0 gusting 0 13.3
2014-Aug-31 00:43 287 0 gusting 1 13.3
2014-Aug-31 00:33 285 1 gusting 1 13.3
2014-Aug-31 00:23 078 0 gusting 1 13.3
2014-Aug-31 00:13 089 13.3
2014-Aug-31 00:03 158 13.3
2014-Aug-30 23:53 167 0 gusting 1 13.3
2014-Aug-30 23:43 180 13.3
2014-Aug-30 23:33 173 0 gusting 1 13.3
2014-Aug-30 23:23 135 0 gusting 1 13.9
2014-Aug-30 23:13 322 1 gusting 2 13.9
2014-Aug-30 23:03 166 1 gusting 2 13.9
2014-Aug-30 22:53 115 2 gusting 4 13.9
2014-Aug-30 22:43 072 2 gusting 4 13.9
2014-Aug-30 22:33 042 1 gusting 2 13.9
2014-Aug-30 22:23 195 1 gusting 1 13.9
2014-Aug-30 22:13 285 0 gusting 1 13.9
2014-Aug-30 22:03 330 0 gusting 5 13.9
2014-Aug-30 21:53 119 1 gusting 4 13.9
2014-Aug-30 21:43 068 2 gusting 6 13.9
2014-Aug-30 21:33 257 2 gusting 4 13.3
2014-Aug-30 21:23 263 0 gusting 2 13.9
2014-Aug-30 21:13 177 0 gusting 4 13.9
2014-Aug-30 21:03 288 1 gusting 2 13.9
2014-Aug-30 20:53 183 1 gusting 4 13.9
2014-Aug-30 20:43 103 2 gusting 5 13.9
2014-Aug-30 20:33 255 4 gusting 7 13.9
2014-Aug-30 20:23 092 4 gusting 7 13.9
2014-Aug-30 20:13 266 7 gusting 13 13.9
2014-Aug-30 20:03 044 6 gusting 10 13.9
2014-Aug-30 19:53 042 6 gusting 11 13.9
2014-Aug-30 19:33 13.9
2014-Aug-30 19:23 291 4 gusting 5 14.4
2014-Aug-30 19:03 291 4 gusting 5 14.4
2014-Aug-30 18:53 303 4 gusting 11 14.4
2014-Aug-30 18:43 310 6 gusting 8 15.0
2014-Aug-30 18:33 307 5 gusting 7 15.0
2014-Aug-30 18:23 270 4 gusting 8 15.0
2014-Aug-30 18:13 292 6 gusting 8 15.0
2014-Aug-30 18:03 321 2 gusting 8 15.0
2014-Aug-30 17:53 288 5 gusting 7 15.0
2014-Aug-30 17:43 291 6 gusting 10 15.0
2014-Aug-30 17:33 254 6 gusting 11 15.0
2014-Aug-30 17:23 311 6 gusting 10 15.0
2014-Aug-30 17:13 310 3 gusting 7 15.0
2014-Aug-30 17:03 273 6 gusting 8 15.0
2014-Aug-30 16:53 293 4 gusting 6 15.0
2014-Aug-30 16:43 271 5 gusting 7 15.0
2014-Aug-30 16:33 294 4 gusting 5 15.0
2014-Aug-30 16:23 296 2 gusting 5 15.0
2014-Aug-30 16:13 273 2 gusting 6 15.0
2014-Aug-30 16:03 284 4 gusting 7 15.0
2014-Aug-30 15:53 272 3 gusting 6 15.0
2014-Aug-30 15:43 259 3 gusting 6 15.0
2014-Aug-30 15:33 274 1 gusting 6 15.0
2014-Aug-30 15:23 279 2 gusting 5 15.6
2014-Aug-30 15:13 273 3 gusting 5 15.6
2014-Aug-30 15:03 282 4 gusting 6 15.6
2014-Aug-30 14:53 270 4 gusting 6 15.6
2014-Aug-30 14:43 279 2 gusting 5 16.1
2014-Aug-30 14:33 316 2 gusting 5 16.1
2014-Aug-30 14:23 305 2 gusting 4 16.1
2014-Aug-30 14:13 288 4 gusting 6 16.1
2014-Aug-30 14:03 320 4 gusting 7 16.7
2014-Aug-30 13:53 012 6 gusting 10 16.7
2014-Aug-30 13:43 327 8 gusting 10 17.2
2014-Aug-30 13:33 327 6 gusting 8 17.2
2014-Aug-30 13:23 012 6 gusting 12 17.8
2014-Aug-30 13:13 010 7 gusting 11 18.3
2014-Aug-30 13:03 350 6 gusting 11 18.3